TimeEST,TemperatureF,Dew PointF,Humidity,Sea Level PressureIn,VisibilityMPH,Wind Direction,Wind SpeedMPH,Gust SpeedMPH,PrecipitationIn,Events,Conditions,WindDirDegrees,DateUTC
12:22 AM,6.8,1.4,79,30.21,4.0,SSW,3.5,-,N/A,,Clear,200,2013-01-03 05:22:00
12:56 AM,6.1,2.1,84,30.27,5.0,SSW,3.5,-,N/A,,Clear,210,2013-01-03 05:56:00
1:56 AM,3.0,-0.9,84,30.27,3.0,Calm,Calm,-,N/A,,Clear,0,2013-01-03 06:56:00
2:56 AM,6.1,2.1,84,30.27,5.0,Calm,Calm,-,N/A,,Clear,0,2013-01-03 07:56:00
3:56 AM,3.0,-0.9,84,30.26,4.0,Calm,Calm,-,N/A,,Clear,0,2013-01-03 08:56:00
4:56 AM,8.1,4.1,84,30.25,6.0,Calm,Calm,-,N/A,,Clear,0,2013-01-03 09:56:00
5:56 AM,10.0,7.2,88,30.26,6.0,Calm,Calm,-,N/A,,Clear,0,2013-01-03 10:56:00
6:56 AM,8.1,4.1,84,30.28,6.0,Calm,Calm,-,N/A,,Clear,0,2013-01-03 11:56:00
7:56 AM,10.0,4.1,77,30.27,5.0,Calm,Calm,-,N/A,,Haze,0,2013-01-03 12:56:00
8:56 AM,12.0,5.0,73,30.27,5.0,Calm,Calm,-,N/A,,Haze,0,2013-01-03 13:56:00
9:56 AM,17.1,7.2,65,30.28,6.0,Calm,Calm,-,N/A,,Haze,0,2013-01-03 14:56:00
10:56 AM,20.1,8.1,60,30.28,6.0,WSW,5.8,-,N/A,,Haze,250,2013-01-03 15:56:00
11:56 AM,25.2,9.1,51,30.26,6.0,WSW,10.4,-,N/A,,Haze,250,2013-01-03 16:56:00
12:56 PM,26.1,12.0,55,30.24,6.0,WSW,13.8,-,N/A,,Haze,240,2013-01-03 17:56:00
1:44 PM,26.6,15.8,64,30.18,6.0,West,16.1,-,N/A,,Haze,260,2013-01-03 18:44:00
1:56 PM,28.0,17.1,63,30.24,5.0,West,18.4,-,N/A,,Haze,280,2013-01-03 18:56:00
2:04 PM,28.4,17.6,64,30.19,5.0,West,17.3,-,N/A,,Haze,260,2013-01-03 19:04:00
2:56 PM,27.1,18.1,69,30.25,5.0,West,15.0,-,N/A,,Haze,260,2013-01-03 19:56:00
3:56 PM,25.2,18.1,75,30.27,5.0,WSW,13.8,-,N/A,,Haze,250,2013-01-03 20:56:00
4:56 PM,24.1,17.1,75,30.29,5.0,WSW,9.2,-,N/A,,Haze,250,2013-01-03 21:56:00
5:56 PM,26.1,19.0,75,30.29,6.0,WSW,11.5,-,N/A,,Haze,250,2013-01-03 22:56:00
6:56 PM,26.1,19.0,75,30.31,7.0,WSW,12.7,-,N/A,,Overcast,250,2013-01-03 23:56:00
7:56 PM,27.1,19.0,72,30.32,6.0,West,12.7,-,N/A,,Haze,260,2013-01-04 00:56:00
8:13 PM,26.6,19.4,74,30.26,6.0,West,13.8,-,N/A,,Haze,260,2013-01-04 01:13:00
8:56 PM,27.1,19.0,72,30.32,6.0,West,16.1,-,N/A,,Haze,270,2013-01-04 01:56:00
9:56 PM,27.1,19.0,72,30.32,7.0,West,10.4,-,N/A,,Overcast,270,2013-01-04 02:56:00
10:56 PM,27.1,20.1,75,30.32,6.0,West,10.4,-,N/A,,Haze,260,2013-01-04 03:56:00
11:56 PM,27.1,19.0,72,30.32,7.0,West,13.8,-,N/A,,Overcast,270,2013-01-04 04:56:00